TimeEDT,TemperatureF,Dew PointF,Humidity,Sea Level PressureIn,VisibilityMPH,Wind Direction,Wind SpeedMPH,Gust SpeedMPH,PrecipitationIn,Events,Conditions,WindDirDegrees,DateUTC
12:51 AM,43.0,30.0,60,29.78,10.0,WNW,15.0,23.0,N/A,,Mostly Cloudy,300,2012-11-03 04:51:00
1:51 AM,42.1,30.0,62,29.77,10.0,WNW,15.0,-,N/A,,Scattered Clouds,290,2012-11-03 05:51:00
2:51 AM,42.1,30.0,62,29.78,10.0,WNW,10.4,21.9,N/A,,Scattered Clouds,300,2012-11-03 06:51:00
3:51 AM,42.1,30.0,62,29.78,10.0,WNW,16.1,23.0,N/A,,Scattered Clouds,300,2012-11-03 07:51:00
4:51 AM,42.1,28.9,60,29.78,10.0,WNW,15.0,-,N/A,,Scattered Clouds,300,2012-11-03 08:51:00
5:51 AM,42.1,28.9,60,29.80,10.0,NW,15.0,21.9,N/A,,Scattered Clouds,310,2012-11-03 09:51:00
6:51 AM,41.0,28.9,62,29.81,10.0,WNW,9.2,-,N/A,,Scattered Clouds,300,2012-11-03 10:51:00
7:51 AM,42.1,30.0,62,29.83,10.0,WNW,11.5,-,N/A,,Scattered Clouds,290,2012-11-03 11:51:00
8:51 AM,45.0,30.0,56,29.85,10.0,NW,17.3,-,N/A,,Scattered Clouds,310,2012-11-03 12:51:00
9:51 AM,46.9,30.0,52,29.85,10.0,NW,21.9,28.8,N/A,,Scattered Clouds,310,2012-11-03 13:51:00
10:51 AM,48.9,30.0,48,29.85,10.0,NW,18.4,26.5,N/A,,Scattered Clouds,320,2012-11-03 14:51:00
11:51 AM,50.0,30.0,46,29.85,10.0,NW,20.7,27.6,N/A,,Scattered Clouds,320,2012-11-03 15:51:00
12:51 PM,52.0,30.9,45,29.84,10.0,WNW,18.4,26.5,N/A,,Mostly Cloudy,300,2012-11-03 16:51:00
1:51 PM,50.0,30.0,46,29.83,10.0,NW,20.7,24.2,N/A,,Mostly Cloudy,310,2012-11-03 17:51:00
2:51 PM,50.0,28.9,44,29.83,10.0,NW,17.3,28.8,N/A,,Mostly Cloudy,320,2012-11-03 18:51:00
3:51 PM,48.9,28.0,44,29.86,10.0,NW,19.6,27.6,N/A,,Mostly Cloudy,320,2012-11-03 19:51:00
4:51 PM,48.9,28.0,44,29.87,10.0,NW,18.4,26.5,N/A,,Mostly Cloudy,320,2012-11-03 20:51:00
5:51 PM,48.0,28.9,48,29.87,10.0,WNW,12.7,25.3,N/A,,Mostly Cloudy,300,2012-11-03 21:51:00
6:51 PM,46.9,28.0,48,29.90,10.0,NW,18.4,-,N/A,,Mostly Cloudy,320,2012-11-03 22:51:00
7:51 PM,46.0,28.9,51,29.92,10.0,NW,17.3,25.3,N/A,,Scattered Clouds,310,2012-11-03 23:51:00
8:51 PM,45.0,28.9,53,29.93,10.0,NW,17.3,25.3,N/A,,Scattered Clouds,310,2012-11-04 00:51:00
9:51 PM,43.0,28.0,56,29.94,10.0,NW,20.7,31.1,N/A,,Scattered Clouds,320,2012-11-04 01:51:00
10:51 PM,43.0,28.9,58,29.94,10.0,NW,17.3,26.5,N/A,,Partly Cloudy,320,2012-11-04 02:51:00
11:51 PM,42.1,28.9,60,29.96,10.0,NW,13.8,23.0,N/A,,Partly Cloudy,310,2012-11-04 03:51:00